星链-2257 (STARLINK-2257 )

导读

STARLINK-2257是美国SpaceX公司星链(Starlink)星座中的一员,于2021年3月11日发射入轨,属于星链早期批量部署阶段的V1.0卫星,运行于近地轨道。它为星链全球卫星互联网组网提供支撑,助力实现面向全球的宽带互联网接入服务,后续随着星链星座迭代,该卫星和其他初代卫星共同推动了星链从测试走向商用的进程。

基本信息
目录编号:
47787
目录名称:
STARLINK-2257
国际标识:
2021-018A
轨道中心:
EARTH
卫星名称:
星链-2257
卫星全名:
星链-2257 (STARLINK-2257 )
卫星状态:
在轨 (已飞行2003 天)
发射日期:
2021-03-11 UTC
国别 :
美国 (US)
星等 :
--
轨道信息
数据来源 国际轨道数据
星历时间: 2026-09-04T01:29:42+0800
12小时前
查看轨道信息
半长轴: 6848.876km
偏心率: 0.0001275
轨道倾角: 53.160°
近地点辐角 98.274°
升交点赤经 137.165°
平近点角 261.840°
近地点: 469.865km
远地点: 471.613km
周期: 94.013分钟
每日圈数: 15.317005
详细信息
固有亮度:
5
最大亮度:
2.5
卫星平台:
Starlink V1.0
覆盖范围:
全球
运营商:
太空探索技术公司
运营商所在国:
美国
制造商(研发单位):
太空探索技术公司
制造商所在国:
美国
使用方式:
暂无
卫星简介
星链(Starlink)计划是由太空探索技术公司(SpaceX)提出的一个巨型低轨卫星互联网星座项目,计划在2019年至2024年间在太空搭建由约1.2万颗卫星组成的“星链”网络,其中1584颗将部署在地球上空550千米处的近地轨道,并从2020年开始工作。该卫星仍在工作。
2D轨道图
3D轨道图
轨道高度分析图
轨道倾角分析图
轨道综合分析图
查看轨道综合分析图
交会数据列表
事件ID 空间交会对象 最接近时刻(TCA) 交会距离 交会风险概率(CRP) 交会风险指数(CRI) 操作
CDM_260905-010104-778706-243022
2026-09-05T
01:01:52+0000
1.178 km
极远距离
9.48545E-6 低风险 0.55
CDM_260905-014804-778706-243022
2026-09-05T
01:48:52+0000
1.379 km
极远距离
5.550161E-6 低风险 0.5
CDM_260904-191104-778706-416521
2026-09-04T
19:11:40+0000
2.869 km
极远距离
1.407421E-6 低风险 0.38